Time,TemperatureF,DewpointF,PressureIn,WindDirection,WindDirectionDegrees,WindSpeedMPH,WindSpeedGustMPH,Humidity,HourlyPrecipIn,Conditions,Clouds,dailyrainin,SoftwareType,DateUTC
2013-02-22 00:00:00,70.1,67.7,29.99,ESE,118,2.0,3.0,92,0.00,,---,0.00,VWS V14.01,2013-02-22 05:00:00,
2013-02-22 00:01:00,70.1,68.0,29.99,ESE,118,0.0,3.0,93,0.00,,---,0.00,VWS V14.01,2013-02-22 05:01:00,
2013-02-22 00:02:00,70.1,68.0,29.99,ESE,118,0.0,3.0,93,0.00,,---,0.00,VWS V14.01,2013-02-22 05:02:00,
2013-02-22 00:07:00,70.1,68.0,29.99,ESE,118,0.0,2.0,93,0.00,,---,0.00,VWS V14.01,2013-02-22 05:07:00,
2013-02-22 00:12:00,70.3,68.2,29.99,ESE,118,0.0,2.0,93,0.00,,---,0.00,VWS V14.01,2013-02-22 05:12:00,
2013-02-22 00:17:00,69.9,67.8,29.99,ESE,118,1.0,2.0,93,0.00,,---,0.00,VWS V14.01,2013-02-22 05:17:00,
2013-02-22 00:22:00,70.1,68.0,29.99,ESE,118,0.0,4.0,93,0.00,,---,0.00,VWS V14.01,2013-02-22 05:22:00,
2013-02-22 00:27:00,69.9,67.8,29.99,ESE,118,0.0,4.0,93,0.00,,---,0.00,VWS V14.01,2013-02-22 05:27:00,
2013-02-22 00:32:00,69.8,68.0,29.99,ESE,118,1.0,4.0,94,0.00,,---,0.00,VWS V14.01,2013-02-22 05:32:00,
2013-02-22 00:37:00,69.8,68.0,29.99,ESE,118,3.0,3.0,94,0.00,,---,0.00,VWS V14.01,2013-02-22 05:37:00,
2013-02-22 00:42:00,69.9,68.1,29.99,ESE,118,1.0,3.0,94,0.00,,---,0.00,VWS V14.01,2013-02-22 05:42:00,
2013-02-22 00:47:00,69.8,68.0,29.98,ESE,117,1.0,3.0,94,0.00,,---,0.00,VWS V14.01,2013-02-22 05:47:00,
2013-02-22 00:52:00,69.9,68.4,29.98,ESE,118,1.0,3.0,95,0.00,,---,0.00,VWS V14.01,2013-02-22 05:52:00,
2013-02-22 00:57:00,70.1,68.6,29.98,ESE,118,2.0,3.0,95,0.00,,---,0.00,VWS V14.01,2013-02-22 05:57:00,
2013-02-22 01:02:00,69.9,68.1,29.97,ESE,118,0.0,0.0,94,0.00,,---,0.00,VWS V14.01,2013-02-22 06:02:00,
2013-02-22 01:07:00,69.8,68.3,29.97,ESE,118,0.0,1.0,95,0.00,,---,0.00,VWS V14.01,2013-02-22 06:07:00,
2013-02-22 01:12:00,69.8,68.6,29.97,ESE,118,1.0,2.0,96,0.00,,---,0.00,VWS V14.01,2013-02-22 06:12:00,
2013-02-22 01:18:00,69.8,68.6,29.97,ESE,118,0.0,2.0,96,0.00,,---,0.00,VWS V14.01,2013-02-22 06:18:00,
2013-02-22 01:23:00,69.8,68.6,29.97,ESE,118,0.0,2.0,96,0.00,,---,0.00,VWS V14.01,2013-02-22 06:23:00,
2013-02-22 01:28:00,69.8,68.6,29.97,ESE,118,0.0,2.0,96,0.00,,---,0.00,VWS V14.01,2013-02-22 06:28:00,
2013-02-22 01:33:00,69.8,68.6,29.97,ESE,118,0.0,0.0,96,0.00,,---,0.00,VWS V14.01,2013-02-22 06:33:00,
2013-02-22 01:38:00,69.8,68.9,29.97,ESE,118,2.0,2.0,97,0.00,,---,0.00,VWS V14.01,2013-02-22 06:38:00,
2013-02-22 01:43:00,69.8,68.9,29.97,ESE,118,1.0,2.0,97,0.00,,---,0.00,VWS V14.01,2013-02-22 06:43:00,
2013-02-22 01:48:00,69.6,68.7,29.97,ESE,118,0.0,2.0,97,0.00,,---,0.00,VWS V14.01,2013-02-22 06:48:00,
2013-02-22 01:53:00,69.4,68.5,29.97,ESE,118,0.0,2.0,97,0.00,,---,0.00,VWS V14.01,2013-02-22 06:53:00,
2013-02-22 01:58:00,69.4,68.8,29.97,ESE,118,0.0,2.0,98,0.00,,---,0.00,VWS V14.01,2013-02-22 06:58:00,
2013-02-22 02:03:00,69.4,68.8,29.97,ESE,118,0.0,1.0,98,0.00,,---,0.00,VWS V14.01,2013-02-22 07:03:00,
2013-02-22 02:08:00,69.6,69.0,29.97,ESE,118,0.0,2.0,98,0.00,,---,0.00,VWS V14.01,2013-02-22 07:08:00,
2013-02-22 02:13:00,69.6,69.0,29.97,ESE,118,0.0,2.0,98,0.00,,---,0.00,VWS V14.01,2013-02-22 07:13:00,
2013-02-22 02:18:00,69.6,69.0,29.97,ESE,118,1.0,2.0,98,0.00,,---,0.00,VWS V14.01,2013-02-22 07:18:00,
2013-02-22 02:23:00,69.4,68.8,29.97,ESE,118,0.0,2.0,98,0.00,,---,0.00,VWS V14.01,2013-02-22 07:23:00,
2013-02-22 02:28:00,69.4,69.1,29.97,ESE,118,0.0,2.0,99,0.00,,---,0.00,VWS V14.01,2013-02-22 07:28:00,
2013-02-22 02:33:00,69.4,69.1,29.96,ESE,118,0.0,0.0,99,0.00,,---,0.00,VWS V14.01,2013-02-22 07:33:00,
2013-02-22 02:38:00,69.4,69.1,29.96,ESE,118,0.0,1.0,99,0.00,,---,0.00,VWS V14.01,2013-02-22 07:38:00,
2013-02-22 02:43:00,69.4,69.1,29.96,ESE,118,0.0,2.0,99,0.00,,---,0.00,VWS V14.01,2013-02-22 07:43:00,
2013-02-22 02:48:00,69.6,69.6,29.96,ESE,118,0.0,3.0,100,0.00,,---,0.00,VWS V14.01,2013-02-22 07:48:00,
2013-02-22 02:53:00,69.8,69.8,29.96,ESE,118,2.0,3.0,100,0.00,,---,0.00,VWS V14.01,2013-02-22 07:53:00,
2013-02-22 02:59:00,69.9,69.6,29.96,ESE,118,0.0,3.0,99,0.00,,---,0.00,VWS V14.01,2013-02-22 07:59:00,
2013-02-22 03:04:00,70.1,69.8,29.95,ESE,118,0.0,1.0,99,0.00,,---,0.00,VWS V14.01,2013-02-22 08:04:00,
2013-02-22 03:09:00,70.3,70.3,29.95,ESE,118,1.0,4.0,100,0.00,,---,0.00,VWS V14.01,2013-02-22 08:09:00,
2013-02-22 03:14:00,70.4,70.1,29.95,ESE,118,3.0,4.0,99,0.00,,---,0.00,VWS V14.01,2013-02-22 08:14:00,
2013-02-22 03:19:00,70.6,70.3,29.95,ESE,118,2.0,4.0,99,0.00,,---,0.00,VWS V14.01,2013-02-22 08:19:00,
2013-02-22 03:24:00,70.6,70.0,29.95,ESE,118,3.0,4.0,98,0.00,,---,0.00,VWS V14.01,2013-02-22 08:24:00,
2013-02-22 03:29:00,70.8,70.5,29.95,ESE,118,2.0,4.0,99,0.00,,---,0.00,VWS V14.01,2013-02-22 08:29:00,
2013-02-22 03:34:00,70.9,70.3,29.95,ESE,118,3.0,3.0,98,0.00,,---,0.00,VWS V14.01,2013-02-22 08:34:00,
2013-02-22 03:39:00,70.9,70.3,29.95,ESE,118,0.0,3.0,98,0.00,,---,0.00,VWS V14.01,2013-02-22 08:39:00,
2013-02-22 03:44:00,71.1,70.5,29.95,ESE,118,2.0,3.0,98,0.00,,---,0.00,VWS V14.01,2013-02-22 08:44:00,
2013-02-22 03:49:00,71.1,70.5,29.95,ESE,118,1.0,3.0,98,0.00,,---,0.00,VWS V14.01,2013-02-22 08:49:00,
2013-02-22 03:54:00,70.9,70.3,29.95,ESE,118,1.0,3.0,98,0.00,,---,0.00,VWS V14.01,2013-02-22 08:54:00,
2013-02-22 03:59:00,70.8,70.2,29.95,ESE,118,0.0,3.0,98,0.00,,---,0.00,VWS V14.01,2013-02-22 08:59:00,
2013-02-22 04:05:00,70.8,70.2,29.95,ESE,118,2.0,2.0,98,0.00,,---,0.00,VWS V14.01,2013-02-22 09:05:00,
2013-02-22 04:10:00,70.8,70.5,29.95,ESE,118,1.0,3.0,99,0.00,,---,0.00,VWS V14.01,2013-02-22 09:10:00,
2013-02-22 04:15:00,70.8,70.5,29.95,ESE,118,1.0,4.0,99,0.00,,---,0.00,VWS V14.01,2013-02-22 09:15:00,
2013-02-22 04:20:00,70.8,70.5,29.95,ESE,118,0.0,4.0,99,0.00,,---,0.00,VWS V14.01,2013-02-22 09:20:00,
2013-02-22 04:25:00,70.9,70.6,29.95,ESE,118,3.0,4.0,99,0.00,,---,0.00,VWS V14.01,2013-02-22 09:25:00,
2013-02-22 04:30:00,70.9,70.6,29.95,ESE,118,2.0,4.0,99,0.00,,---,0.00,VWS V14.01,2013-02-22 09:30:00,
2013-02-22 04:35:00,70.9,70.6,29.96,ESE,118,0.0,4.0,99,0.00,,---,0.00,VWS V14.01,2013-02-22 09:35:00,
2013-02-22 04:40:00,70.9,70.3,29.96,ESE,118,1.0,4.0,98,0.00,,---,0.00,VWS V14.01,2013-02-22 09:40:00,
2013-02-22 04:45:00,70.8,70.5,29.96,ESE,118,3.0,4.0,99,0.00,,---,0.00,VWS V14.01,2013-02-22 09:45:00,
2013-02-22 04:50:00,70.8,70.5,29.96,ESE,118,3.0,4.0,99,0.00,,---,0.00,VWS V14.01,2013-02-22 09:50:00,
2013-02-22 04:55:00,70.8,70.5,29.96,ESE,118,0.0,4.0,99,0.00,,---,0.00,VWS V14.01,2013-02-22 09:55:00,
2013-02-22 05:00:00,70.6,70.3,29.96,ESE,118,0.0,4.0,99,0.00,,---,0.00,VWS V14.01,2013-02-22 10:00:00,
2013-02-22 05:05:00,70.8,70.5,29.96,ESE,118,0.0,2.0,99,0.00,,---,0.00,VWS V14.01,2013-02-22 10:05:00,
2013-02-22 05:10:00,70.6,70.6,29.96,ESE,118,0.0,2.0,100,0.00,,---,0.00,VWS V14.01,2013-02-22 10:10:00,
2013-02-22 05:15:00,70.6,70.6,29.96,ESE,118,0.0,2.0,100,0.00,,---,0.00,VWS V14.01,2013-02-22 10:15:00,
2013-02-22 05:21:00,70.4,70.4,29.97,ESE,118,0.0,2.0,100,0.00,,---,0.00,VWS V14.01,2013-02-22 10:21:00,
2013-02-22 05:26:00,70.3,70.3,29.97,ESE,118,0.0,2.0,100,0.00,,---,0.00,VWS V14.01,2013-02-22 10:26:00,
2013-02-22 05:31:00,70.1,70.1,29.97,ESE,118,1.0,2.0,100,0.00,,---,0.00,VWS V14.01,2013-02-22 10:31:00,
2013-02-22 05:36:00,70.3,70.3,29.97,ESE,118,0.0,2.0,100,0.00,,---,0.00,VWS V14.01,2013-02-22 10:36:00,
2013-02-22 05:41:00,70.1,70.1,29.97,ESE,118,0.0,2.0,100,0.00,,---,0.00,VWS V14.01,2013-02-22 10:41:00,
2013-02-22 05:46:00,69.9,69.9,29.98,ESE,118,0.0,2.0,100,0.00,,---,0.00,VWS V14.01,2013-02-22 10:46:00,
2013-02-22 05:51:00,69.8,69.8,29.98,ESE,118,0.0,2.0,100,0.00,,---,0.00,VWS V14.01,2013-02-22 10:51:00,
2013-02-22 05:56:00,69.9,69.9,29.98,ESE,118,0.0,2.0,100,0.00,,---,0.00,VWS V14.01,2013-02-22 10:56:00,
2013-02-22 06:01:00,70.1,70.1,29.98,ESE,118,0.0,3.0,100,0.00,,---,0.00,VWS V14.01,2013-02-22 11:01:00,
2013-02-22 06:06:00,70.3,70.3,29.98,ESE,118,2.0,3.0,100,0.00,,---,0.00,VWS V14.01,2013-02-22 11:06:00,
2013-02-22 06:11:00,70.3,70.3,29.98,ESE,118,2.0,3.0,100,0.00,,---,0.00,VWS V14.01,2013-02-22 11:11:00,
2013-02-22 06:16:00,70.4,70.4,29.99,ESE,118,0.0,3.0,100,0.00,,---,0.00,VWS V14.01,2013-02-22 11:16:00,
2013-02-22 06:21:00,70.6,70.6,29.99,ESE,118,0.0,4.0,100,0.00,,---,0.00,VWS V14.01,2013-02-22 11:21:00,
2013-02-22 06:26:00,70.8,70.8,29.99,ESE,118,0.0,4.0,100,0.00,,---,0.00,VWS V14.01,2013-02-22 11:26:00,
2013-02-22 06:31:00,70.8,70.8,29.99,ESE,118,2.0,4.0,100,0.00,,---,0.00,VWS V14.01,2013-02-22 11:31:00,
2013-02-22 06:36:00,71.1,71.1,29.99,ESE,118,2.0,3.0,100,0.00,,---,0.00,VWS V14.01,2013-02-22 11:36:00,
2013-02-22 06:41:00,71.1,71.1,29.99,ESE,118,2.0,3.0,100,0.00,,---,0.00,VWS V14.01,2013-02-22 11:41:00,
2013-02-22 06:46:00,71.1,71.1,30.00,ESE,118,1.0,3.0,100,0.00,,---,0.00,VWS V14.01,2013-02-22 11:46:00,
2013-02-22 06:52:00,71.1,71.1,30.00,ESE,118,2.0,3.0,100,0.00,,---,0.00,VWS V14.01,2013-02-22 11:52:00,
2013-02-22 06:57:00,71.3,71.3,30.00,ESE,118,3.0,3.0,100,0.00,,---,0.00,VWS V14.01,2013-02-22 11:57:00,
2013-02-22 07:02:00,71.3,71.3,30.00,ESE,118,0.0,3.0,100,0.00,,---,0.00,VWS V14.01,2013-02-22 12:02:00,
2013-02-22 07:07:00,71.3,71.3,30.00,ESE,118,4.0,4.0,100,0.00,,---,0.00,VWS V14.01,2013-02-22 12:07:00,
2013-02-22 07:12:00,71.5,71.5,30.00,ESE,118,0.0,4.0,100,0.00,,---,0.00,VWS V14.01,2013-02-22 12:12:00,
2013-02-22 07:17:00,71.6,71.6,30.00,ESE,118,4.0,4.0,100,0.00,,---,0.00,VWS V14.01,2013-02-22 12:17:00,
2013-02-22 07:22:00,71.8,71.8,30.00,ESE,118,0.0,5.0,100,0.00,,---,0.00,VWS V14.01,2013-02-22 12:22:00,
2013-02-22 07:27:00,72.0,72.0,30.00,ESE,118,2.0,5.0,100,0.00,,---,0.00,VWS V14.01,2013-02-22 12:27:00,
2013-02-22 07:32:00,72.5,72.2,30.01,ESE,118,2.0,5.0,99,0.00,,---,0.00,VWS V14.01,2013-02-22 12:32:00,
2013-02-22 07:37:00,72.8,72.2,30.01,ESE,118,5.0,5.0,98,0.00,,---,0.00,VWS V14.01,2013-02-22 12:37:00,
2013-02-22 07:42:00,73.2,72.6,30.01,ESE,118,1.0,5.0,98,0.00,,---,0.00,VWS V14.01,2013-02-22 12:42:00,
2013-02-22 07:47:00,73.5,72.6,30.02,ESE,118,2.0,5.0,97,0.00,,---,0.00,VWS V14.01,2013-02-22 12:47:00,
2013-02-22 07:52:00,74.0,73.1,30.02,ESE,114,8.0,8.0,97,0.00,,---,0.00,VWS V14.01,2013-02-22 12:52:00,
2013-02-22 07:57:00,74.4,72.9,30.02,ESE,118,5.0,9.0,95,0.00,,---,0.00,VWS V14.01,2013-02-22 12:57:00,
2013-02-22 08:02:00,74.7,72.9,30.02,SE,124,5.0,5.0,94,0.00,,---,0.00,VWS V14.01,2013-02-22 13:02:00,
2013-02-22 08:07:00,75.1,73.3,30.02,ESE,123,3.0,5.0,94,0.00,,---,0.00,VWS V14.01,2013-02-22 13:07:00,
2013-02-22 08:12:00,75.4,72.9,30.02,ESE,121,5.0,7.0,92,0.00,,---,0.00,VWS V14.01,2013-02-22 13:12:00,
2013-02-22 08:17:00,75.6,73.4,30.02,SE,128,2.0,7.0,93,0.00,,---,0.00,VWS V14.01,2013-02-22 13:17:00,
2013-02-22 08:23:00,75.8,73.0,30.02,SE,131,4.0,7.0,91,0.00,,---,0.00,VWS V14.01,2013-02-22 13:23:00,
2013-02-22 08:28:00,75.4,72.3,30.02,ESE,108,6.0,7.0,90,0.00,,---,0.00,VWS V14.01,2013-02-22 13:28:00,
2013-02-22 08:33:00,75.4,72.6,30.02,SE,132,3.0,8.0,91,0.00,,---,0.00,VWS V14.01,2013-02-22 13:33:00,
2013-02-22 08:38:00,76.3,72.8,30.02,ESE,119,4.0,11.0,89,0.00,,---,0.00,VWS V14.01,2013-02-22 13:38:00,
2013-02-22 08:43:00,76.8,73.0,30.02,ESE,111,10.0,11.0,88,0.00,,---,0.00,VWS V14.01,2013-02-22 13:43:00,
2013-02-22 08:48:00,76.5,72.0,30.02,SE,126,3.0,12.0,86,0.00,,---,0.00,VWS V14.01,2013-02-22 13:48:00,
2013-02-22 08:53:00,76.5,72.0,30.02,SE,136,5.0,12.0,86,0.00,,---,0.00,VWS V14.01,2013-02-22 13:53:00,
2013-02-22 08:58:00,76.8,72.3,30.02,ESE,108,6.0,12.0,86,0.00,,---,0.00,VWS V14.01,2013-02-22 13:58:00,
2013-02-22 09:03:00,77.9,72.3,30.02,ESE,109,2.0,5.0,83,0.00,,---,0.00,VWS V14.01,2013-02-22 14:03:00,
2013-02-22 09:08:00,78.6,71.9,30.02,SE,124,9.0,10.0,80,0.00,,---,0.00,VWS V14.01,2013-02-22 14:08:00,
2013-02-22 09:13:00,78.5,71.8,30.02,SE,129,3.0,11.0,80,0.00,,---,0.00,VWS V14.01,2013-02-22 14:13:00,
2013-02-22 09:18:00,78.8,71.4,30.03,ESE,123,7.0,11.0,78,0.00,,---,0.00,VWS V14.01,2013-02-22 14:18:00,
2013-02-22 09:23:00,79.4,71.9,30.03,SE,130,2.0,11.0,78,0.00,,---,0.00,VWS V14.01,2013-02-22 14:23:00,
2013-02-22 09:28:00,79.8,71.9,30.03,ESE,115,3.0,11.0,77,0.00,,---,0.00,VWS V14.01,2013-02-22 14:28:00,
2013-02-22 09:33:00,79.4,71.9,30.03,ESE,113,3.0,9.0,78,0.00,,---,0.00,VWS V14.01,2013-02-22 14:33:00,
2013-02-22 09:38:00,79.8,71.9,30.03,SSE,148,5.0,10.0,77,0.00,,---,0.00,VWS V14.01,2013-02-22 14:38:00,
2013-02-22 09:44:00,79.9,72.1,30.03,ESE,119,3.0,10.0,77,0.00,,---,0.00,VWS V14.01,2013-02-22 14:44:00,
2013-02-22 09:49:00,80.9,71.8,30.03,ESE,121,3.0,10.0,74,0.00,,---,0.00,VWS V14.01,2013-02-22 14:49:00,
2013-02-22 09:54:00,80.1,71.5,30.03,SE,130,6.0,10.0,75,0.00,,---,0.00,VWS V14.01,2013-02-22 14:54:00,
2013-02-22 09:59:00,79.4,71.2,30.03,SE,140,5.0,10.0,76,0.00,,---,0.00,VWS V14.01,2013-02-22 14:59:00,
2013-02-22 10:04:00,80.1,71.9,30.03,SE,132,4.0,4.0,76,0.00,,---,0.00,VWS V14.01,2013-02-22 15:04:00,
2013-02-22 10:09:00,80.9,71.4,30.03,South,169,4.0,11.0,73,0.00,,---,0.00,VWS V14.01,2013-02-22 15:09:00,
2013-02-22 10:14:00,80.7,71.2,30.03,SE,126,3.0,11.0,73,0.00,,---,0.00,VWS V14.01,2013-02-22 15:14:00,
2013-02-22 10:19:00,80.5,71.5,30.03,SE,144,5.0,11.0,74,0.00,,---,0.00,VWS V14.01,2013-02-22 15:19:00,
2013-02-22 10:24:00,80.7,71.2,30.03,SE,128,3.0,14.0,73,0.00,,---,0.00,VWS V14.01,2013-02-22 15:24:00,
2013-02-22 10:29:00,80.7,71.7,30.03,SE,134,6.0,14.0,74,0.00,,---,0.00,VWS V14.01,2013-02-22 15:29:00,
2013-02-22 10:34:00,81.1,71.6,30.03,ESE,116,4.0,9.0,73,0.00,,---,0.00,VWS V14.01,2013-02-22 15:34:00,
2013-02-22 10:39:00,82.2,71.9,30.03,SE,132,4.0,9.0,71,0.00,,---,0.00,VWS V14.01,2013-02-22 15:39:00,
2013-02-22 10:44:00,83.2,72.0,30.03,SE,144,4.0,9.0,69,0.00,,---,0.00,VWS V14.01,2013-02-22 15:44:00,
2013-02-22 10:49:00,81.8,71.1,30.03,ESE,113,6.0,9.0,70,0.00,,---,0.00,VWS V14.01,2013-02-22 15:49:00,
2013-02-22 10:54:00,80.5,71.1,30.03,SE,143,2.0,11.0,73,0.00,,---,0.00,VWS V14.01,2013-02-22 15:54:00,
2013-02-22 10:59:00,80.9,71.8,30.03,SE,135,4.0,11.0,74,0.00,,---,0.00,VWS V14.01,2013-02-22 15:59:00,
2013-02-22 11:04:00,82.2,71.9,30.03,ESE,119,7.0,7.0,71,0.00,,---,0.00,VWS V14.01,2013-02-22 16:04:00,
2013-02-22 11:09:00,82.8,71.2,30.03,ESE,121,3.0,7.0,68,0.00,,---,0.00,VWS V14.01,2013-02-22 16:09:00,
2013-02-22 11:15:00,81.6,71.3,30.03,ESE,114,4.0,8.0,71,0.00,,---,0.00,VWS V14.01,2013-02-22 16:15:00,
2013-02-22 11:20:00,81.8,71.5,30.03,SE,129,4.0,8.0,71,0.00,,---,0.00,VWS V14.01,2013-02-22 16:20:00,
2013-02-22 11:25:00,81.1,71.6,30.03,SE,136,5.0,11.0,73,0.00,,---,0.00,VWS V14.01,2013-02-22 16:25:00,
2013-02-22 11:30:00,81.4,71.1,30.03,SE,130,5.0,11.0,71,0.00,,---,0.00,VWS V14.01,2013-02-22 16:30:00,
2013-02-22 11:35:00,81.6,71.7,30.03,ESE,113,1.0,9.0,72,0.00,,---,0.00,VWS V14.01,2013-02-22 16:35:00,
2013-02-22 11:40:00,81.2,71.3,30.03,ESE,122,3.0,9.0,72,0.00,,---,0.00,VWS V14.01,2013-02-22 16:40:00,
2013-02-22 11:45:00,80.9,71.4,30.03,SE,131,3.0,9.0,73,0.00,,---,0.00,VWS V14.01,2013-02-22 16:45:00,
2013-02-22 11:50:00,82.2,71.9,30.03,SE,126,2.0,9.0,71,0.00,,---,0.00,VWS V14.01,2013-02-22 16:50:00,
2013-02-22 11:55:00,83.0,72.2,30.03,ESE,111,3.0,10.0,70,0.00,,---,0.00,VWS V14.01,2013-02-22 16:55:00,
2013-02-22 12:00:00,82.0,70.8,30.03,ESE,122,4.0,11.0,69,0.00,,---,0.00,VWS V14.01,2013-02-22 17:00:00,
2013-02-22 12:05:00,81.2,71.3,30.02,ESE,120,3.0,12.0,72,0.00,,---,0.00,VWS V14.01,2013-02-22 17:05:00,
2013-02-22 12:10:00,80.7,71.2,30.02,ESE,122,9.0,12.0,73,0.00,,---,0.00,VWS V14.01,2013-02-22 17:10:00,
2013-02-22 12:15:00,81.6,71.7,30.02,East,89,4.0,12.0,72,0.00,,---,0.00,VWS V14.01,2013-02-22 17:15:00,
2013-02-22 12:20:00,81.6,71.7,30.02,SE,144,11.0,12.0,72,0.00,,---,0.00,VWS V14.01,2013-02-22 17:20:00,
2013-02-22 12:25:00,83.0,71.8,30.02,ESE,113,6.0,12.0,69,0.00,,---,0.00,VWS V14.01,2013-02-22 17:25:00,
2013-02-22 12:30:00,82.8,71.6,30.02,SE,132,9.0,12.0,69,0.00,,---,0.00,VWS V14.01,2013-02-22 17:30:00,
2013-02-22 12:35:00,81.8,71.5,30.00,SE,128,5.0,7.0,71,0.00,,---,0.00,VWS V14.01,2013-02-22 17:35:00,
2013-02-22 12:40:00,81.8,71.9,30.00,SE,137,4.0,18.0,72,0.00,,---,0.00,VWS V14.01,2013-02-22 17:40:00,
2013-02-22 12:45:00,81.8,71.9,30.00,South,171,2.0,18.0,72,0.00,,---,0.00,VWS V14.01,2013-02-22 17:45:00,
2013-02-22 12:50:00,82.0,72.1,30.00,SE,136,4.0,18.0,72,0.00,,---,0.00,VWS V14.01,2013-02-22 17:50:00,
2013-02-22 12:55:00,81.4,71.5,30.00,SSE,148,9.0,18.0,72,0.00,,---,0.00,VWS V14.01,2013-02-22 17:55:00,
2013-02-22 13:00:00,81.2,71.3,30.00,ESE,105,2.0,18.0,72,0.00,,---,0.00,VWS V14.01,2013-02-22 18:00:00,
2013-02-22 13:05:00,80.9,71.4,30.00,ESE,115,2.0,5.0,73,0.00,,---,0.00,VWS V14.01,2013-02-22 18:05:00,
2013-02-22 13:11:00,83.2,71.1,30.00,ESE,117,2.0,6.0,67,0.00,,---,0.00,VWS V14.01,2013-02-22 18:11:00,
2013-02-22 13:16:00,82.8,71.2,30.00,SE,134,2.0,9.0,68,0.00,,---,0.00,VWS V14.01,2013-02-22 18:16:00,
2013-02-22 13:21:00,82.4,71.2,29.99,SE,132,2.0,9.0,69,0.00,,---,0.00,VWS V14.01,2013-02-22 18:21:00,
2013-02-22 13:26:00,82.6,71.8,29.99,SE,136,7.0,10.0,70,0.00,,---,0.00,VWS V14.01,2013-02-22 18:26:00,
2013-02-22 13:31:00,83.0,71.8,29.99,ESE,111,6.0,10.0,69,0.00,,---,0.00,VWS V14.01,2013-02-22 18:31:00,
2013-02-22 13:36:00,83.0,71.8,29.98,SE,143,3.0,4.0,69,0.00,,---,0.00,VWS V14.01,2013-02-22 18:36:00,
2013-02-22 13:41:00,82.4,71.6,29.98,SE,129,5.0,7.0,70,0.00,,---,0.00,VWS V14.01,2013-02-22 18:41:00,
2013-02-22 13:46:00,82.4,71.2,29.98,ESE,113,10.0,11.0,69,0.00,,---,0.00,VWS V14.01,2013-02-22 18:46:00,
2013-02-22 13:51:00,84.0,71.4,29.98,ESE,117,10.0,11.0,66,0.00,,---,0.00,VWS V14.01,2013-02-22 18:51:00,
2013-02-22 13:56:00,84.0,71.4,29.98,ESE,102,6.0,11.0,66,0.00,,---,0.00,VWS V14.01,2013-02-22 18:56:00,
2013-02-22 14:01:00,84.5,71.0,29.97,South,180,2.0,11.0,64,0.00,,---,0.00,VWS V14.01,2013-02-22 19:01:00,
2013-02-22 14:06:00,84.1,71.1,29.97,SE,134,3.0,9.0,65,0.00,,---,0.00,VWS V14.01,2013-02-22 19:06:00,
2013-02-22 14:11:00,83.0,70.9,29.97,ESE,123,5.0,9.0,67,0.00,,---,0.00,VWS V14.01,2013-02-22 19:11:00,
2013-02-22 14:16:00,82.8,71.2,29.97,ESE,110,4.0,9.0,68,0.00,,---,0.00,VWS V14.01,2013-02-22 19:16:00,
2013-02-22 14:21:00,84.1,71.1,29.97,SE,136,9.0,14.0,65,0.00,,---,0.00,VWS V14.01,2013-02-22 19:21:00,
2013-02-22 14:26:00,84.0,71.9,29.97,SE,127,1.0,14.0,67,0.00,,---,0.00,VWS V14.01,2013-02-22 19:26:00,
2013-02-22 14:31:00,82.8,70.7,29.97,ESE,109,5.0,14.0,67,0.00,,---,0.00,VWS V14.01,2013-02-22 19:31:00,
2013-02-22 14:36:00,82.8,70.3,29.97,SE,130,7.0,9.0,66,0.00,,---,0.00,VWS V14.01,2013-02-22 19:36:00,
2013-02-22 14:41:00,83.8,70.3,29.97,ESE,111,11.0,11.0,64,0.00,,---,0.00,VWS V14.01,2013-02-22 19:41:00,
2013-02-22 14:46:00,82.8,70.7,29.97,East,81,4.0,11.0,67,0.00,,---,0.00,VWS V14.01,2013-02-22 19:46:00,
2013-02-22 14:51:00,83.4,71.3,29.97,ESE,116,4.0,11.0,67,0.00,,---,0.00,VWS V14.01,2013-02-22 19:51:00,
2013-02-22 14:57:00,84.3,71.3,29.97,SE,135,6.0,11.0,65,0.00,,---,0.00,VWS V14.01,2013-02-22 19:57:00,
2013-02-22 15:02:00,83.8,71.2,29.97,SSE,153,4.0,11.0,66,0.00,,---,0.00,VWS V14.01,2013-02-22 20:02:00,
2013-02-22 15:07:00,84.0,71.9,29.97,ESE,116,4.0,11.0,67,0.00,,---,0.00,VWS V14.01,2013-02-22 20:07:00,
2013-02-22 15:12:00,84.3,71.3,29.97,SE,140,2.0,11.0,65,0.00,,---,0.00,VWS V14.01,2013-02-22 20:12:00,
2013-02-22 15:17:00,84.7,70.7,29.97,SE,131,6.0,11.0,63,0.00,,---,0.00,VWS V14.01,2013-02-22 20:17:00,
2013-02-22 15:22:00,84.1,71.1,29.97,ESE,113,4.0,11.0,65,0.00,,---,0.00,VWS V14.01,2013-02-22 20:22:00,
2013-02-22 15:27:00,83.6,70.6,29.97,SE,128,2.0,11.0,65,0.00,,---,0.00,VWS V14.01,2013-02-22 20:27:00,
2013-02-22 15:32:00,84.5,71.4,29.97,East,97,2.0,11.0,65,0.00,,---,0.00,VWS V14.01,2013-02-22 20:32:00,
2013-02-22 15:37:00,84.0,70.5,29.97,ESE,121,2.0,12.0,64,0.00,,---,0.00,VWS V14.01,2013-02-22 20:37:00,
2013-02-22 15:42:00,84.1,70.2,29.97,ESE,114,5.0,12.0,63,0.00,,---,0.00,VWS V14.01,2013-02-22 20:42:00,
2013-02-22 15:47:00,83.6,70.1,29.96,ESE,115,6.0,12.0,64,0.00,,---,0.00,VWS V14.01,2013-02-22 20:47:00,
2013-02-22 15:52:00,84.0,70.1,29.96,ESE,122,3.0,12.0,63,0.00,,---,0.00,VWS V14.01,2013-02-22 20:52:00,
2013-02-22 15:57:00,83.8,70.3,29.96,ESE,108,0.0,12.0,64,0.00,,---,0.00,VWS V14.01,2013-02-22 20:57:00,
2013-02-22 16:02:00,83.6,70.1,29.96,ESE,105,13.0,13.0,64,0.00,,---,0.00,VWS V14.01,2013-02-22 21:02:00,
2013-02-22 16:07:00,83.8,69.9,29.96,ESE,116,1.0,13.0,63,0.00,,---,0.00,VWS V14.01,2013-02-22 21:07:00,
2013-02-22 16:12:00,83.8,70.3,29.96,SSW,213,2.0,13.0,64,0.00,,---,0.00,VWS V14.01,2013-02-22 21:12:00,
2013-02-22 16:17:00,83.4,71.3,29.97,ESE,108,7.0,13.0,67,0.00,,---,0.00,VWS V14.01,2013-02-22 21:17:00,
2013-02-22 16:22:00,82.8,70.7,29.97,ENE,65,7.0,13.0,67,0.00,,---,0.00,VWS V14.01,2013-02-22 21:22:00,
2013-02-22 16:27:00,82.4,70.3,29.97,SE,127,9.0,13.0,67,0.00,,---,0.00,VWS V14.01,2013-02-22 21:27:00,
2013-02-22 16:32:00,82.0,70.8,29.97,ESE,109,5.0,5.0,69,0.00,,---,0.00,VWS V14.01,2013-02-22 21:32:00,
2013-02-22 16:38:00,82.0,70.8,29.97,SE,130,1.0,7.0,69,0.00,,---,0.00,VWS V14.01,2013-02-22 21:38:00,
2013-02-22 16:43:00,81.6,70.9,29.97,SSE,149,6.0,10.0,70,0.00,,---,0.00,VWS V14.01,2013-02-22 21:43:00,
2013-02-22 16:48:00,81.2,70.5,29.97,East,100,5.0,10.0,70,0.00,,---,0.00,VWS V14.01,2013-02-22 21:48:00,
2013-02-22 16:53:00,81.1,70.8,29.97,ESE,117,6.0,10.0,71,0.00,,---,0.00,VWS V14.01,2013-02-22 21:53:00,
2013-02-22 16:58:00,80.7,70.4,29.97,ESE,111,4.0,10.0,71,0.00,,---,0.00,VWS V14.01,2013-02-22 21:58:00,
2013-02-22 17:03:00,80.7,70.4,29.97,ESE,103,5.0,5.0,71,0.00,,---,0.00,VWS V14.01,2013-02-22 22:03:00,
2013-02-22 17:08:00,80.5,70.7,29.97,SE,128,2.0,9.0,72,0.00,,---,0.00,VWS V14.01,2013-02-22 22:08:00,
2013-02-22 17:13:00,80.3,70.5,29.97,ESE,121,8.0,9.0,72,0.00,,---,0.00,VWS V14.01,2013-02-22 22:13:00,
2013-02-22 17:18:00,80.1,70.3,29.97,SE,130,4.0,9.0,72,0.00,,---,0.00,VWS V14.01,2013-02-22 22:18:00,
2013-02-22 17:23:00,80.1,70.7,29.97,ESE,120,6.0,9.0,73,0.00,,---,0.00,VWS V14.01,2013-02-22 22:23:00,
2013-02-22 17:28:00,79.9,70.5,29.97,SE,128,6.0,9.0,73,0.00,,---,0.00,VWS V14.01,2013-02-22 22:28:00,
2013-02-22 17:33:00,79.4,70.4,29.98,SE,125,1.0,5.0,74,0.00,,---,0.00,VWS V14.01,2013-02-22 22:33:00,
2013-02-22 17:38:00,79.2,70.2,29.98,ENE,57,9.0,10.0,74,0.00,,---,0.00,VWS V14.01,2013-02-22 22:38:00,
2013-02-22 17:43:00,78.5,70.3,29.98,SE,124,7.0,10.0,76,0.00,,---,0.00,VWS V14.01,2013-02-22 22:43:00,
2013-02-22 17:48:00,78.3,70.9,29.98,ESE,108,2.0,10.0,78,0.00,,---,0.00,VWS V14.01,2013-02-22 22:48:00,
2013-02-22 17:53:00,78.1,70.7,29.98,ESE,108,3.0,10.0,78,0.00,,---,0.00,VWS V14.01,2013-02-22 22:53:00,
2013-02-22 17:58:00,77.6,70.6,29.98,ESE,110,4.0,10.0,79,0.00,,---,0.00,VWS V14.01,2013-02-22 22:58:00,
2013-02-22 18:03:00,77.2,70.6,29.98,SE,125,3.0,4.0,80,0.00,,---,0.00,VWS V14.01,2013-02-22 23:03:00,
2013-02-22 18:08:00,76.8,70.9,29.98,ESE,118,7.0,10.0,82,0.00,,---,0.00,VWS V14.01,2013-02-22 23:08:00,
2013-02-22 18:13:00,76.5,70.6,29.98,ESE,118,6.0,10.0,82,0.00,,---,0.00,VWS V14.01,2013-02-22 23:13:00,
2013-02-22 18:18:00,76.3,70.8,29.98,ESE,105,4.0,10.0,83,0.00,,---,0.00,VWS V14.01,2013-02-22 23:18:00,
2013-02-22 18:24:00,76.1,70.6,29.98,SE,139,3.0,10.0,83,0.00,,---,0.00,VWS V14.01,2013-02-22 23:24:00,
2013-02-22 18:29:00,76.0,70.8,29.98,SE,136,7.0,10.0,84,0.00,,---,0.00,VWS V14.01,2013-02-22 23:29:00,
2013-02-22 18:34:00,75.8,71.0,29.99,ESE,108,5.0,5.0,85,0.00,,---,0.00,VWS V14.01,2013-02-22 23:34:00,
2013-02-22 18:39:00,75.6,70.8,29.99,SE,127,2.0,9.0,85,0.00,,---,0.00,VWS V14.01,2013-02-22 23:39:00,
2013-02-22 18:44:00,75.6,70.8,29.99,East,93,4.0,9.0,85,0.00,,---,0.00,VWS V14.01,2013-02-22 23:44:00,
2013-02-22 18:49:00,75.4,70.9,29.99,SE,130,5.0,9.0,86,0.00,,---,0.00,VWS V14.01,2013-02-22 23:49:00,
2013-02-22 18:54:00,75.4,71.3,29.99,SE,132,2.0,9.0,87,0.00,,---,0.00,VWS V14.01,2013-02-22 23:54:00,
2013-02-22 18:59:00,75.4,71.6,29.99,ESE,121,2.0,9.0,88,0.00,,---,0.00,VWS V14.01,2013-02-22 23:59:00,
2013-02-22 19:04:00,75.3,71.8,29.99,ESE,113,4.0,8.0,89,0.00,,---,0.00,VWS V14.01,2013-02-23 00:04:00,
2013-02-22 19:09:00,75.1,72.0,29.99,ESE,113,5.0,8.0,90,0.00,,---,0.00,VWS V14.01,2013-02-23 00:09:00,
2013-02-22 19:14:00,75.1,72.0,29.99,ESE,121,0.0,8.0,90,0.00,,---,0.00,VWS V14.01,2013-02-23 00:14:00,
2013-02-22 19:19:00,74.9,71.8,29.99,East,99,5.0,8.0,90,0.00,,---,0.00,VWS V14.01,2013-02-23 00:19:00,
2013-02-22 19:24:00,74.9,72.1,29.99,ESE,113,3.0,8.0,91,0.00,,---,0.00,VWS V14.01,2013-02-23 00:24:00,
2013-02-22 19:29:00,74.9,72.1,29.99,SE,128,3.0,8.0,91,0.00,,---,0.00,VWS V14.01,2013-02-23 00:29:00,
2013-02-22 19:34:00,74.9,72.1,29.99,SE,130,2.0,7.0,91,0.00,,---,0.00,VWS V14.01,2013-02-23 00:34:00,
2013-02-22 19:40:00,74.9,72.1,29.99,ESE,120,2.0,7.0,91,0.00,,---,0.00,VWS V14.01,2013-02-23 00:40:00,
2013-02-22 19:45:00,74.7,71.9,29.99,ESE,121,5.0,7.0,91,0.00,,---,0.00,VWS V14.01,2013-02-23 00:45:00,
2013-02-22 19:50:00,74.7,71.9,29.99,East,86,2.0,7.0,91,0.00,,---,0.00,VWS V14.01,2013-02-23 00:50:00,
2013-02-22 19:55:00,74.7,72.2,29.99,East,96,3.0,7.0,92,0.00,,---,0.00,VWS V14.01,2013-02-23 00:55:00,
2013-02-22 20:00:00,74.6,72.1,29.99,ESE,114,3.0,9.0,92,0.00,,---,0.00,VWS V14.01,2013-02-23 01:00:00,
2013-02-22 20:05:00,74.6,71.8,30.00,ESE,118,3.0,6.0,91,0.00,,---,0.00,VWS V14.01,2013-02-23 01:05:00,
2013-02-22 20:10:00,74.6,72.1,30.00,SE,128,2.0,6.0,92,0.00,,---,0.00,VWS V14.01,2013-02-23 01:10:00,
2013-02-22 20:15:00,74.6,72.1,30.00,ESE,109,3.0,6.0,92,0.00,,---,0.00,VWS V14.01,2013-02-23 01:15:00,
2013-02-22 20:20:00,74.6,72.4,30.00,ESE,117,2.0,7.0,93,0.00,,---,0.00,VWS V14.01,2013-02-23 01:20:00,
2013-02-22 20:25:00,74.4,72.2,30.00,ESE,117,4.0,7.0,93,0.00,,---,0.00,VWS V14.01,2013-02-23 01:25:00,
2013-02-22 20:30:00,74.4,72.6,30.00,ESE,117,1.0,7.0,94,0.00,,---,0.00,VWS V14.01,2013-02-23 01:30:00,
2013-02-22 20:35:00,74.4,72.6,30.00,ESE,121,2.0,5.0,94,0.00,,---,0.00,VWS V14.01,2013-02-23 01:35:00,
2013-02-22 20:40:00,74.4,72.6,30.00,ESE,121,3.0,5.0,94,0.00,,---,0.00,VWS V14.01,2013-02-23 01:40:00,
2013-02-22 20:45:00,74.4,72.6,30.00,ESE,119,4.0,6.0,94,0.00,,---,0.00,VWS V14.01,2013-02-23 01:45:00,
2013-02-22 20:50:00,74.4,72.6,30.00,ESE,115,5.0,6.0,94,0.00,,---,0.00,VWS V14.01,2013-02-23 01:50:00,
2013-02-22 20:55:00,74.4,72.6,30.00,ESE,116,2.0,7.0,94,0.00,,---,0.00,VWS V14.01,2013-02-23 01:55:00,
2013-02-22 21:01:00,74.2,72.4,30.00,ESE,114,3.0,7.0,94,0.00,,---,0.00,VWS V14.01,2013-02-23 02:01:00,
2013-02-22 21:06:00,74.2,72.4,30.00,East,92,2.0,6.0,94,0.00,,---,0.00,VWS V14.01,2013-02-23 02:06:00,
2013-02-22 21:11:00,74.2,72.4,30.00,ESE,106,5.0,9.0,94,0.00,,---,0.00,VWS V14.01,2013-02-23 02:11:00,
2013-02-22 21:16:00,74.0,72.2,30.00,ESE,108,5.0,9.0,94,0.00,,---,0.00,VWS V14.01,2013-02-23 02:16:00,
2013-02-22 21:21:00,74.0,72.2,30.00,ESE,108,3.0,9.0,94,0.00,,---,0.00,VWS V14.01,2013-02-23 02:21:00,
2013-02-22 21:26:00,74.0,72.2,30.00,ESE,109,2.0,9.0,94,0.00,,---,0.00,VWS V14.01,2013-02-23 02:26:00,
2013-02-22 21:31:00,74.0,72.2,30.00,ESE,109,1.0,9.0,94,0.00,,---,0.00,VWS V14.01,2013-02-23 02:31:00,
2013-02-22 21:36:00,74.0,72.2,30.00,ESE,107,2.0,5.0,94,0.00,,---,0.00,VWS V14.01,2013-02-23 02:36:00,
2013-02-22 21:41:00,74.0,72.2,30.00,East,91,2.0,8.0,94,0.00,,---,0.00,VWS V14.01,2013-02-23 02:41:00,
2013-02-22 21:46:00,74.0,72.5,30.00,East,98,3.0,8.0,95,0.00,,---,0.00,VWS V14.01,2013-02-23 02:46:00,
2013-02-22 21:51:00,74.0,72.5,30.00,East,98,2.0,8.0,95,0.00,,---,0.00,VWS V14.01,2013-02-23 02:51:00,
2013-02-22 21:56:00,74.0,72.2,30.00,ESE,116,2.0,8.0,94,0.00,,---,0.00,VWS V14.01,2013-02-23 02:56:00,
2013-02-22 22:02:00,74.0,72.2,30.01,SE,126,3.0,8.0,94,0.00,,---,0.00,VWS V14.01,2013-02-23 03:02:00,
2013-02-22 22:07:00,74.0,72.2,30.01,SE,128,1.0,6.0,94,0.00,,---,0.00,VWS V14.01,2013-02-23 03:07:00,
2013-02-22 22:12:00,74.0,71.8,30.01,SE,139,4.0,6.0,93,0.00,,---,0.00,VWS V14.01,2013-02-23 03:12:00,
2013-02-22 22:17:00,74.0,72.2,30.00,ESE,121,3.0,6.0,94,0.00,,---,0.00,VWS V14.01,2013-02-23 03:17:00,
2013-02-22 22:22:00,74.2,72.4,30.00,ESE,113,5.0,6.0,94,0.00,,---,0.00,VWS V14.01,2013-02-23 03:22:00,
2013-02-22 22:27:00,74.2,72.1,30.00,ESE,121,4.0,6.0,93,0.00,,---,0.00,VWS V14.01,2013-02-23 03:27:00,
2013-02-22 22:32:00,74.2,72.1,30.00,ESE,117,1.0,6.0,93,0.00,,---,0.00,VWS V14.01,2013-02-23 03:32:00,
2013-02-22 22:37:00,74.2,72.4,30.00,ESE,120,2.0,11.0,94,0.00,,---,0.00,VWS V14.01,2013-02-23 03:37:00,
2013-02-22 22:42:00,74.4,72.6,30.00,ESE,119,5.0,12.0,94,0.00,,---,0.00,VWS V14.01,2013-02-23 03:42:00,
2013-02-22 22:47:00,74.2,72.4,30.00,ESE,119,2.0,12.0,94,0.00,,---,0.00,VWS V14.01,2013-02-23 03:47:00,
2013-02-22 22:52:00,74.0,72.2,30.00,ESE,106,4.0,12.0,94,0.00,,---,0.00,VWS V14.01,2013-02-23 03:52:00,
2013-02-22 22:57:00,73.7,71.9,30.00,SE,124,3.0,12.0,94,0.00,,---,0.00,VWS V14.01,2013-02-23 03:57:00,
2013-02-22 23:02:00,73.5,71.7,30.00,ESE,109,7.0,7.0,94,0.00,,---,0.00,VWS V14.01,2013-02-23 04:02:00,
2013-02-22 23:07:00,73.3,71.5,30.00,ESE,115,4.0,7.0,94,0.00,,---,0.00,VWS V14.01,2013-02-23 04:07:00,
2013-02-22 23:12:00,73.3,71.5,30.00,ESE,114,3.0,7.0,94,0.00,,---,0.00,VWS V14.01,2013-02-23 04:12:00,
2013-02-22 23:17:00,73.2,71.4,30.00,ESE,115,3.0,7.0,94,0.00,,---,0.00,VWS V14.01,2013-02-23 04:17:00,
2013-02-22 23:23:00,73.2,71.4,30.00,SE,127,0.0,7.0,94,0.00,,---,0.00,VWS V14.01,2013-02-23 04:23:00,
2013-02-22 23:28:00,73.0,71.2,30.00,SE,124,0.0,7.0,94,0.00,,---,0.00,VWS V14.01,2013-02-23 04:28:00,
2013-02-22 23:33:00,73.2,71.4,29.99,ESE,116,4.0,4.0,94,0.00,,---,0.00,VWS V14.01,2013-02-23 04:33:00,
2013-02-22 23:38:00,73.2,71.1,29.99,ESE,106,4.0,6.0,93,0.00,,---,0.00,VWS V14.01,2013-02-23 04:38:00,
2013-02-22 23:43:00,73.3,71.5,29.99,ESE,112,4.0,8.0,94,0.00,,---,0.00,VWS V14.01,2013-02-23 04:43:00,
2013-02-22 23:48:00,73.5,71.7,29.99,ESE,108,6.0,9.0,94,0.00,,---,0.00,VWS V14.01,2013-02-23 04:48:00,
2013-02-22 23:53:00,73.5,71.7,29.99,East,96,3.0,9.0,94,0.00,,---,0.00,VWS V14.01,2013-02-23 04:53:00,
2013-02-22 23:58:00,73.3,71.5,29.99,SE,129,2.0,9.0,94,0.00,,---,0.00,VWS V14.01,2013-02-23 04:58:00,